Forum


Ask a question

No. FLOSS Question Date
Views
Answers
1 DWSIM Transient simulations and Stream wise report 2015-10-21 07:04:10.000000 1590 1
2 DWSIM TEXTBOOK COMPANION INTERNSHIP 2015-12-23 17:35:03.000000 1281 1
3 DWSIM Unavailability of compounds in Database 2015-12-24 14:14:49.000000 1973 2
4 DWSIM Conversion of Reaction 2016-01-04 14:31:49.000000 1639 1
5 DWSIM Textbook companion project 2016-02-10 13:38:57.000000 1258 2
6 DWSIM Equilibrium reactor simulation 2016-02-26 15:40:26.000000 4391 2
7 DWSIM Creating component hypothetically 2016-04-22 09:22:23.000000 3343 2
8 DWSIM How to install and run DWSIM on MAC AIR? 2016-04-25 10:40:30.000000 1520 2
9 DWSIM New Compound Creator Study 2016-05-26 11:56:10.000000 2268 1
10 DWSIM FLASH DRUM SEPARATOR 2016-12-03 02:40:31.000000 1050 1
11 DWSIM OPEN SOURCE APPLICATION 2016-12-03 04:08:30.000000 962 5
12 DWSIM HEAT EXCHANGER 2016-12-04 05:57:37.000000 1198 1
13 DWSIM SIMULATION inquiry 2016-12-29 06:53:02.000000 914 2
14 DWSIM RECYCLE STREAM 2017-01-10 04:40:53.000000 1593 1
15 DWSIM DWSIM components 2017-03-08 14:13:14.000000 1102 2
16 DWSIM Unbalanced equation 2017-03-19 14:23:10.000000 881 2
17 DWSIM Multi component Distillation 2017-04-25 12:11:09.000000 1224 1
18 DWSIM double clicking not opening main editing window 2017-05-12 02:47:51.000000 833 1
19 DWSIM step size becomes too small error in plug flow reactor 2017-05-14 05:44:09.000000 996 1
20 DWSIM Assigning operating pressure for distillation column 2017-07-26 18:58:47.000000 933 1
21 DWSIM Regarding Submission of flow sheet and its deadline. 2017-08-07 15:00:09.000000 807 1
22 DWSIM internship details 2017-08-14 14:13:59.000000 775 1
23 DWSIM can we use DWSIM for simulutions for a spray or rotay drier systems 2017-09-07 08:36:51.000000 969 1
24 DWSIM Three phase library open-source 2017-09-13 14:22:23.000000 834 1
25 DWSIM Three phase open-source library 2017-09-13 14:22:55.000000 791 1
26 DWSIM Issue in DWSIM Software Installation 2017-10-02 05:45:54.000000 924 1
27 DWSIM Downloading the Tutorials 2017-10-03 13:49:40.000000 867 1
28 DWSIM DWSIM for membrane separation 2017-10-30 17:26:45.000000 1227 1
29 DWSIM can you suggest me the solution for the error I'm getting while designing methanol synthesis process ? 2017-12-22 12:22:28.000000 777 1
30 DWSIM Displaying reaction results 2017-12-31 08:31:37.000000 671 1
31 DWSIM PFR step size error 2018-01-11 10:26:39.000000 710 1
32 DWSIM Rigorous Distillation 2018-01-12 06:01:32.000000 943 1
33 DWSIM Kinetic reaction 2018-01-21 05:17:44.000000 723 1
34 DWSIM Proble with opening DWSIM file into software 2018-02-02 07:11:26.000000 861 1
35 DWSIM Dehydration Plant 2018-02-19 15:29:52.000000 720 1
36 DWSIM Dehydration Plant Simulation 2018-02-27 14:03:49.000000 624 2
37 DWSIM CATALYST is not present 2018-03-21 18:44:11.000000 769 2
38 DWSIM About unit operations in DWSIM 2018-04-03 12:00:22.000000 751 1
39 DWSIM Regarding adding compuonds in DWSIM 2018-04-04 11:45:22.000000 1370 1
40 DWSIM Brine evaporation in DWSIM 2018-04-21 04:54:02.000000 675 1
41 DWSIM UNIQUAC package with default flash doesnot converge. 2018-05-17 18:37:34.000000 680 3
42 DWSIM Conversion reactor 2018-05-21 20:31:08.000000 692 4
43 DWSIM fixing the output data for a given problem 2018-05-26 17:18:25.000000 568 1
44 DWSIM separator column in compound separater 2018-05-26 18:24:56.000000 600 1
45 DWSIM Crude Desalter Simulator 2018-05-27 06:17:30.000000 675 1
46 DWSIM help about vinyl chloride 2018-05-28 18:01:35.000000 596 1
47 DWSIM Compound not available 2018-06-01 17:08:01.000000 702 1
48 DWSIM Bubble Column Reactor Substitute 2018-06-20 05:45:42.000000 708 1
49 DWSIM Python Documentation For DWSIM 2018-06-21 06:57:47.000000 912 1
50 DWSIM Simulating a condensor 2018-06-24 04:42:34.000000 739 1
51 DWSIM About internship's forms 2018-07-05 10:00:45.000000 683 1
52 DWSIM Pipe unit operation 2018-07-14 14:42:47.000000 706 1
53 DWSIM about a scrubber design 2018-07-22 15:53:53.000000 893 1
54 DWSIM about flowsheet submission 2018-07-29 12:56:35.000000 791 1
55 DWSIM Development of graphical user interface in Excel 2018-08-24 08:45:45.000000 609 1
56 DWSIM Simulation of process model for n number of data points or observations 2018-08-24 08:51:16.000000 608 1
57 DWSIM Error in stichiometry 2018-08-24 09:17:41.000000 681 3
58 DWSIM doubt regarding reaction furnace and condenser 2018-09-15 14:15:00.000000 645 1
59 DWSIM error in LLE ternary graph utility 2018-10-08 15:22:17.000000 798 2
60 DWSIM error in a kinetic reaction 2018-11-01 11:40:17.000000 675 1
61 DWSIM Rigourous Distillation column error with image file 2018-11-21 12:52:40.637300 734 1
62 DWSIM find the enthalpy in python script 2018-12-04 04:49:54.852579 583 1
63 DWSIM Problem with "Valve" 2018-12-05 08:35:47.995121 645 3
64 DWSIM DWSIM Wastewater treatment process 2018-12-19 20:43:41.379014 725 1
65 DWSIM upload user define compound 2018-12-23 06:48:53.388854 563 1
66 DWSIM Issues related to DWSIM in mac 2019-01-08 15:36:26.443308 643 2
67 DWSIM equillibrium reactor 2019-03-12 18:01:08.763284 718 2
68 DWSIM Reaction manager 2019-03-26 16:30:04.686962 722 1
69 DWSIM Not able to download the codes for Textbook Companion Project 2019-04-24 04:06:12.674019 476 1
70 DWSIM classic extractive distillation with 2 simple columns,  with water, ethanol and benzene 2019-04-28 20:10:56.613384 579 1
71 DWSIM Custom modeler 2019-05-17 15:03:35.785255 463 1
72 DWSIM R.O desalination 2019-05-17 15:32:40.033347 488 1
73 DWSIM Error while accessing compounds 2019-06-26 17:38:39.404765 406 1
74 DWSIM Not responding error 2019-06-29 10:33:49.500974 412 4
75 DWSIM .ERROR IN POWER CALC OF PUMP 2019-07-09 13:34:58.961977 375 1
76 DWSIM chemicals and thermodynamic 2019-07-28 18:10:08.125386 436 1
77 DWSIM How to add a Component Splitter 2019-09-17 14:20:25.989936 480 1
78 DWSIM CAPE-OPEN Unit Operations 2019-09-17 14:27:21.315684 507 6
79 DWSIM Using a custom compound 2019-10-10 13:51:25.781544 405 2
80 DWSIM Automation of compound separator 2019-12-04 16:45:48.004921 304 1
81 DWSIM Error while opening "Open Python Script Editor" 2019-12-06 10:59:07.175921 337 1
82 DWSIM Reaction manager in Mac os 2020-01-18 06:17:01.979261 311 3
83 DWSIM Amberlyst and sulfuric acid are not available in the list, how to proceed. 2020-02-18 12:57:36.985693 288 2
84 DWSIM Flowsheet proposal form submitted but one of the compounds to be used was left out due to some error.how to correct it ? 2020-02-24 06:28:10.536173 409 1
85 DWSIM Syntheis/production of ammonium nitrate 2020-03-26 11:25:15.695498 272 2
86 DWSIM Polymer Component creator 2020-04-27 07:18:37.359744 227 6
87 DWSIM Error in Equilibrium Reactor 2020-05-04 09:50:58.977275 211 1
88 DWSIM PVC Component 2020-05-12 03:20:25.884525 191 1
89 DWSIM 3-phase separator 2020-05-13 21:39:23.441675 267 2
90 DWSIM Regarding Optimization Tool 2020-06-13 14:05:17.037310 157 2
91 DWSIM Heterogeneous Catalytic Error tf=t0 2020-07-01 12:04:51.522563 168 1
92 DWSIM simulation inspector 2020-07-09 09:31:46.110072 132 1
93 DWSIM DWSIM installation Error 2020-07-13 09:42:24.351430 159 1
94 DWSIM NEW COMPOUND ADD 2020-07-18 05:38:09.003950 144 1
95 DWSIM How to model Pc Shaft in Dwsim updated version. 2020-07-24 06:49:46.572296 104 2
96 DWSIM I have installed and configured GNU Octave but i cant able to model pc shaft 2020-07-25 07:25:50.543967 126 2
97 DWSIM Using temperature dependent function of K in Equilibrium Reactor 2020-07-27 15:39:22.651480 119 1
98 DWSIM Thermodynamic property package selection 2020-07-31 10:07:44.769359 143 1
99 DWSIM Error in Density calculation 2020-08-12 11:50:43.803540 87 1
100 DWSIM Error in adding connections to Cape_Open Objects 2020-08-15 16:21:07.611742 123 2
101 DWSIM Biomass pirolisis 2020-08-15 21:08:34.641687 88 2
102 DWSIM Solid phase reactions 2020-08-15 21:10:04.899060 2 0
103 DWSIM The tab for binary phase envelope is not visible on reopening the dwxml file. 2020-08-19 08:03:36.322543 74 1
104 DWSIM REGARDING INTERNSHIP FORMS. 2020-08-19 17:46:33.219360 95 1
105 DWSIM Parallel reaction in Heterogeneous catalytic reaction 2020-08-25 15:26:48.648522 92 1
106 DWSIM heterogeneous catalyst 2020-08-28 03:42:52.065100 81 1
107 DWSIM centrifugal pump 2020-08-29 05:54:48.288126 71 1
108 DWSIM ADDING A COMPOUND 2020-08-31 16:26:54.506769 80 1
109 DWSIM I have problems changing the compunds in a existing model? 2020-09-02 14:03:22.984586 72 3
110 DWSIM Object reference not set to an instance of an object? 2020-09-05 09:41:27.570387 11 1
111 DWSIM WHAT TO USE FOR EVAPORATOR 2020-09-05 17:34:18.694008 121 1
112 DWSIM How to sort component list (Selected compounds)? 2020-09-06 01:27:35.754171 53 3
113 DWSIM Installation of DWSIM 2020-09-07 07:50:10.069804 67 1
114 DWSIM Unable to use 32 bit C++ DLL in DWSIM5 source code. 2020-09-09 07:11:00.091876 120 1
115 DWSIM flash algorithm not appering dwsim 2020-09-13 13:52:05.963393 44 1
116 DWSIM property pacakge 2020-09-16 05:59:58.299010 39 1
117 DWSIM Editing Appearance of Units 2020-09-17 09:31:38.391069 2 0
118 DWSIM How to add Sucrose compound to the Database? 2020-09-18 16:05:48.152686 22 1
119 DWSIM the flash algorithm not appering dwsim 2020-09-24 06:28:40.311898 10 1
120 DWSIM Formalin simulation 2020-09-24 20:58:03.321565 6 0
121 DWSIM few options not available 2020-09-26 09:32:30.079705 4 0